Location: Caixon
(43.4106°N, 0.0273°E)
Time: 22:17:08
(UTC+00:00)

Cosmos 1484 Rocket - Pass Details

Date: 16 October 2021
Orbit: 505 x 556 km, 97.5° (Epoch: 07 December)

Event Time Altitude Azimuth Distance (km) Brightness Sun altitude
Rises 04:06:51 0° 16° (NNE) 2,636 6.6 -24.0°
Reaches altitude 10° 04:08:58 10° 20° (NNE) 1,751 5.7 -23.6°
Maximum altitude 04:12:42 58° 100° (E) 610 3.2 -22.9°
Enters shadow 04:14:36 26° 171° (S) 1,042 4.2 -22.6°
